DELTA 1 DEB, 42084

Orbit data source: Space-Track

DELTA 1 DEB, 42084 is space debris in SSO originally from a launch on Sun, 15 Dec 1968 UTC launched from the Air Force Western Test Range (AFWTR). Debris objects in space refer to the collection of defunct objects orbiting the Earth. Examples of debris include non-operational satellites, rocket bodies, and fragments generated from explosions, collisions, or faulty payload assembly.

Loading next visibility...
Identifier
42084, 1968-114L
Orbit
SSO
Country
Flag of USUS
Related business
Manufacturer
Aerojet
Mission
Spacecraft
Bus & Motor
Unknown
Mass
Unknown
Launch date (UTC)
1968-12-15 (58 years ago)
Launch vehicle
Unknown
Launch site
Air Force Western Test Range (AFWTR)
Object type
Payload
Rocket body
Debris
Shape & HBR
Unknown shape, 0.1 m
Radar Cross Section
Medium (>0.1 m² and <1 m²)

Expand to show TLE details & history
Last TLE update: 1 week ago

TLE from 1 week ago
0 DELTA 1 DEB
1 42084U 68114L   26164.86233183  .00000694  00000-0  37049-2 0  9995
2 42084 101.7070 213.9785 0342008 196.9227 162.0202 12.54074947299358
Epoch: 2026-06-13T20:41Z
TLE epoch observation values (Epoch: 2026-06-13T20:41:45.470Z)
Latitude
0.00001°
Longitude
1.3677°
Altitude
1,705.523 km
Speed
6.908 km/s
True Right ascension
14h 15m 54s
True Declination
0° 00' 00"
Sunlit
Object was in partial shadow at epoch
Visualization orbit readout
Latitude
Unknown
Longitude
Unknown
Altitude
Unknown
Speed
Unknown
Apparent Right ascension
Unknown
Apparent Declination
Unknown
Sunlit
N/A
Visualization observer readout
Local Sidereal Time
21:52:26
Azimuth
Unknown
Elevation
Unknown
Doppler factor
Unknown
Orbital elements
Apogee altitude
1,712.59 km
Perigee altitude
1,177.473 km
Semi-major axis
7,823.168 km
Eccentricity
0.0342
Inclination
101.707°
RAAN
213.9785°
Arg. of periapsis
196.9227°
True anomaly
163.18254°
Mean anomaly
162.0202°
Eccentric anomaly
162.60599°
Mean motion
3.13667 °/min
Orbital period
114.77 mins
BSTAR
0.0037049
Loading maneuver chart data...
Computing Atmospheric mass density...
Loading historical data...
Loading historical data...
Loading historical data...
Loading historical data...
Loading historical data...
Loading historical data...
Loading historical data...

Documentation

Showing up to 5 results
|